Content
SEND FEEDBACK

Daily
Averages
Monthly
Summary
United Kingdom

BRAFFERTON, ENGLAND


Home > Europe > United Kingdom > England
Elevation: 51 feet     Latitude: 54 02N     Longitude: 001 15W

WEATHER
 
SELECT A DAY
Number of Records: 59,100;   Date Range: 6/2/04 - 8/18/14
 
SHARE

PRINT THIS DATA

[ ← Previous Day ]
WEATHER ALMANAC - SEPTEMBER 28, 2013
[ Next Day → ]
[ °C ]   °F
Weather ElementAverageHighLow
Temperature52.5 °F66.2 °F (1:50 pm)41 °F (4:50 am)
Dewpoint46.5 °F51.8 °F (11:50 am)39.2 °F (4:50 am)
Humidity81.1 %100 % (2:50 am)41 % (3:50 pm)
Barometer29.92 in29.96 in (3:50 am)29.86 in (3:50 pm)
Wind Speed5.4 mph12.7 mph (2:50 pm)
Weather ElementAverage
Visibility4.7 mi
Wind DirectionSSE (166.7 °)

Weather ElementTotal
Precipitation---
Heating Degree Days11.4 (Base 65)
Growing Degree Days3.6 (Base 50)
Averaged from 30 records on September 28, 2013
WEATHER CONDITIONS BREAKOUT
WIND DIRECTION BREAKOUT
WEATHER BY HOUR - SEPTEMBER 28, 2013
[ °C ]   °F
Local TimeTemperatureDewpointHumidityBarometerVisibilityWind DirectionWind SpeedGust SpeedPrecipitationEventsConditions
1:50 AM46.4 °F44.6 °F93 %29.95 inSE (140°)4.6 mph
2:50 AM44.6 °F44.6 °F100 %29.95 in0.2 miSouth (170°)2.3 mph
3:50 AM44.0 °F43.0 °F96 %29.96 in1.0 miSSE (160°)1.2 mph
3:50 AM44.6 °F42.8 °F93 %29.95 in1.3 miSSE (160°)1.2 mph
4:50 AM41.0 °F39.2 °F93 %29.95 in0.2 miCalmPartly Cloudy
5:50 AM42.8 °F42.8 °F100 %29.92 inNNW (330°)1.2 mphPartly Cloudy
6:50 AM42.8 °F41.0 °F93 %29.92 in1.3 miWNW (300°)3.5 mph
6:50 AM42.0 °F42.0 °F98 %29.94 in1.0 miWNW (300°)3.5 mph
7:50 AM44.6 °F44.6 °F100 %29.92 in3.1 miNNW (340°)2.3 mphMostly Cloudy
8:50 AM48.2 °F46.4 °F93 %29.92 inNNW (340°)2.3 mphOvercast
9:50 AM50.0 °F48.0 °F92 %29.95 in3.0 miNorth (350°)4.6 mphOvercast
9:50 AM50.0 °F48.2 °F94 %29.95 in3.1 miNorth (350°)4.6 mphOvercast
10:50 AM51.8 °F50.0 °F94 %29.95 in3.7 miNorth (10°)3.5 mphMostly Cloudy
11:50 AM59.0 °F51.8 °F77 %29.92 in4.3 miNorth (360°)2.3 mphScattered Clouds
12:50 PM62.6 °F51.8 °F68 %29.92 in5.0 miESE (110°)5.8 mphPartly Cloudy
12:50 PM62.0 °F51.0 °F59 %29.92 in5.0 miESE (110°)5.8 mphScattered Clouds
1:50 PM66.2 °F48.2 °F52 %29.89 in6.2 miESE (110°)10.4 mph
2:50 PM66.2 °F46.4 °F49 %29.89 in6.2 miSE (130°)12.7 mph
3:50 PM64.0 °F46.0 °F41 %29.88 in12.0 miSE (130°)12.7 mph
3:50 PM64.4 °F46.4 °F52 %29.86 in6.2 miSE (130°)12.7 mph
4:50 PM62.6 °F48.2 °F59 %29.86 in6.2 miESE (120°)10.4 mph
5:50 PM60.8 °F50.0 °F68 %29.86 in6.2 miESE (120°)12.7 mph
6:50 PM57.2 °F48.2 °F72 %29.89 in6.2 miEast (100°)9.2 mph
6:50 PM57.0 °F48.0 °F64 %29.89 in11.0 miEast (100°)9.2 mph
7:50 PM53.6 °F46.4 °F77 %29.89 in6.2 miESE (110°)8.1 mph
8:50 PM51.8 °F48.2 °F88 %29.92 in6.2 miESE (110°)4.6 mph
9:50 PM50.0 °F48.0 °F89 %29.94 in7.0 miEast (90°)3.5 mph
9:50 PM50.0 °F48.2 °F94 %29.92 in6.2 miEast (90°)3.5 mph
10:50 PM48.2 °F46.4 °F93 %29.92 in5.6 miENE (70°)2.3 mph
11:50 PM46.4 °F44.6 °F93 %29.92 in4.3 miENE (60°)2.3 mph
Hourly data recorded from EGXD, located miles away from Brafferton, England







STORIES FROM OUR PARTNERS